Fort Myers, FL

8:36 AM EDT on August 19, 2017 (GMT -0400)
Page

Weather History for KFMY - November, 2014

Change the Weather History Date:

Friday, November 7, 2014

  Actual Average Record
Temperature  
Mean Temperature 73 °F 73 °F  
Max Temperature 82 °F 83 °F 91 °F (1943)
Min Temperature 64 °F 64 °F 47 °F (1954)
Degree Days  
Heating Degree Days 0 0  
Month to date heating degree days 10 0  
Since 1 July heating degree days 10 2  
Cooling Degree Days 8 8  
Month to date cooling degree days 31 63  
Year to date cooling degree days 3822 3711  
Growing Degree Days 22 (Base 50)    
Moisture  
Dew Point 64 °F    
Average Humidity 77    
Maximum Humidity 100    
Minimum Humidity 54    
Precipitation  
Precipitation 0.00 in 0.09 in 1.97 in (1983)
Month to date precipitation 0.00 0.61  
Year to date precipitation 37.80 52.87  
Sea Level Pressure  
Sea Level Pressure 29.96 in    
Wind  
Wind Speed 4 mph (NW)    
Max Wind Speed 14 mph    
Max Gust Speed 16 mph    
Visibility 10 miles    
Events      
T = Trace of Precipitation, MM = Missing Value Source: NWS Daily Summary

Daily Weather History Graph

Daily Weather History Graph

Search for Another Location

Airport or City:

Trip Planner

Search our weather history database for the weather conditions in past years. The results will help you decide how hot, cold, wet, or windy it might be!

Date:

Astronomy

Nov. 07, 2014 Rise Set
Actual Time 6:40 AM EST 5:41 PM EST
Civil Twilight 6:16 AM EST 6:05 PM EST
Nautical Twilight 5:49 AM EST 6:32 PM EST
Astronomical Twilight 5:21 AM EST 7:00 PM EST
Moon 6:34 PM EST (11/7) 7:14 AM EST (11/7)
Length of Visible Light 11h 48m
Length of Day
11h 00m
Full, 99% of the Moon is Illuminated
Nov 7
Full
Nov 14
Last Quarter
Nov 22
New
Nov 29
First Quarter
Dec 6
Full

Hourly Weather History & Observations

Time (EST) Temp. Heat Index Dew Point Humidity Pressure Visibility Wind Dir Wind Speed Gust Speed Precip Events Conditions
12:53 AM 69.1 °F - 66.0 °F 90% 29.99 in 10.0 mi North 5.8 mph - N/A   Clear
1:53 AM 66.9 °F - 64.9 °F 93% 29.97 in 10.0 mi Calm Calm - N/A   Clear
2:53 AM 66.0 °F - 64.9 °F 96% 29.96 in 10.0 mi Calm Calm - N/A   Clear
3:53 AM 64.9 °F - 64.0 °F 97% 29.95 in 10.0 mi Calm Calm - N/A   Clear
4:53 AM 64.9 °F - 63.0 °F 93% 29.95 in 9.0 mi Calm Calm - N/A   Scattered Clouds
5:53 AM 64.9 °F - 64.0 °F 97% 29.96 in 9.0 mi Calm Calm - N/A   Mostly Cloudy
6:53 AM 64.9 °F - 64.0 °F 97% 29.97 in 7.0 mi Calm Calm - N/A   Clear
7:53 AM 68.0 °F - 66.0 °F 93% 30.00 in 8.0 mi Calm Calm - N/A   Partly Cloudy
8:53 AM 75.0 °F - 66.9 °F 76% 30.00 in 10.0 mi NNE 5.8 mph - N/A   Clear
9:53 AM 77.0 °F - 64.0 °F 64% 30.01 in 10.0 mi North 5.8 mph - N/A   Clear
10:53 AM 79.0 °F - 64.0 °F 60% 29.99 in 10.0 mi Variable 4.6 mph - N/A   Partly Cloudy
11:53 AM 80.1 °F 81.5 °F 63.0 °F 56% 29.97 in 10.0 mi Calm Calm - N/A   Scattered Clouds
12:53 PM 80.1 °F 81.5 °F 63.0 °F 56% 29.94 in 10.0 mi Calm Calm - N/A   Mostly Cloudy
1:53 PM 78.1 °F - 64.0 °F 62% 29.92 in 10.0 mi West 5.8 mph - N/A   Partly Cloudy
2:53 PM 81.0 °F 82.2 °F 63.0 °F 54% 29.91 in 10.0 mi WSW 10.4 mph - N/A   Mostly Cloudy
3:53 PM 80.1 °F 81.5 °F 63.0 °F 56% 29.91 in 10.0 mi WNW 8.1 mph - N/A   Scattered Clouds
4:53 PM 78.1 °F - 63.0 °F 60% 29.91 in 10.0 mi WNW 9.2 mph - N/A   Clear
5:53 PM 75.0 °F - 64.0 °F 69% 29.93 in 10.0 mi West 9.2 mph - N/A   Partly Cloudy
6:53 PM 72.0 °F - 64.9 °F 78% 29.96 in 10.0 mi WNW 8.1 mph - N/A   Clear
7:53 PM 70.0 °F - 62.1 °F 76% 29.97 in 10.0 mi NNW 8.1 mph - N/A   Scattered Clouds
8:53 PM 68.0 °F - 62.1 °F 81% 29.98 in 10.0 mi NNW 4.6 mph - N/A   Partly Cloudy
9:53 PM 68.0 °F - 62.1 °F 81% 29.98 in 10.0 mi NW 5.8 mph - N/A   Mostly Cloudy
10:53 PM 66.9 °F - 60.1 °F 79% 29.98 in 10.0 mi NNE 5.8 mph - N/A   Mostly Cloudy
11:53 PM 66.0 °F - 61.0 °F 84% 29.96 in 10.0 mi NNE 5.8 mph - N/A   Partly Cloudy